Location: Newark
(47.8839°N, 8.3436°E)
Time: 11:04:22
(UTC+00:00)

OTV 5 (USA 277) - Visible Passes

Search period start: 23 October 2019 00:00
Search period end: 02 November 2019 00:00
Orbit: 310 x 324 km, 54.5° (Epoch: 17 October)

Date Brightness Start Highest point End Pass type
(mag) Time Alt. Az. Time Alt. Az. Time Alt. Az.
29 Oct ? 17:20:11 10° S 17:21:59 16° SE 17:22:16 16° SE visible
30 Oct ? 17:33:47 10° SSW 17:36:20 36° SE 17:36:39 35° ESE visible
31 Oct ? 17:48:05 10° WSW 17:50:49 88° SSE 17:50:56 81° ENE visible
01 Nov ? 18:02:47 10° W 18:05:08 42° NW 18:05:08 42° NW visible
